ギブス彗星

331P/Gibbs (2015)

English version
Home page
Updated on June 11, 2016

---------------------------------------------------------------------

・ プロフィール

・ 軌道要素

Epoch 2015 June 27.0 TT = JDT 2457200.5
T 2015 June 16.44189 TT                                 MPCW
q   2.8802692            (2000.0)            P               Q
n   0.18931504     Peri.  178.17154     +0.81879731     -0.56505284
a   3.0038573      Node   216.83635     +0.52454025     +0.80816351
e   0.0411431      Incl.    9.73941     +0.23329915     +0.16609341
P   5.21
From 112 observations 2004 Aug. 26-2015 Dec. 4, mean residual 0".6.

・ 光度変化

        m1 = 15.0 + 5 logΔ + 10.0 log r

---------------------------------------------------------------------

軌道要素はM.P.E.C. 2016-D32に掲載されたものです。
光度グラフはComet for Windowsで作成したものです。

---------------------------------------------------------------------

Copyright(C) Seiichi Yoshida (comet@aerith.net). All rights reserved.